This demonstration page uses our WeatherBlox Daily Observations layout. Learn more.

Left ArrowRight Arrow

Hourly Observations for August 19, 2019

Temp ( °F °C ) Dew Point ( °F °C ) Humidity (%) Winds ( mph kmh ) Pressure ( in mb ) Visibility ( mi km ) Precip ( " mm )
12:56 am 00:56 Mostly Clear 70 21 68 20 94 94 NW 3 6 29.95 1014 10 16 0.00 0.00
1:56 am 01:56 Partly Cloudy 70 21 66 19 88 88 NW 5 7 29.96 1014 10 16 0.00 0.00
2:56 am 02:56 Clear 70 21 66 19 88 88 Calm 29.95 1014 10 16 0.00 0.00
3:56 am 03:56 Clear 68 20 66 19 94 94 WNW 3 6 29.96 1015 10 16 0.00 0.00
4:56 am 04:56 Partly Cloudy 70 21 66 19 88 88 Calm 29.97 1015 10 16 0.00 0.00
5:56 am 05:56 Mostly Clear 68 20 66 19 94 94 Calm 29.98 1015 10 16 0.00 0.00
6:56 am 06:56 Sunny 68 20 66 19 94 94 NNW 1 2 30.00 1016 10 16 0.00 0.00
7:56 am 07:56 Partly Cloudy 70 21 66 19 88 88 Calm 30.01 1016 10 16 0.00 0.00
8:56 am 08:56 Mostly Sunny 72 22 64 18 78 78 E 5 7 30.01 1016 10 16 0.00 0.00
9:56 am 09:56 Partly Cloudy 77 25 68 20 74 74 E 6 9 30.00 1016 10 16 0.00 0.00
10:56 am 10:56 Sunny N/A N/A N/A E 9 15 N/A 10 16 0.00 0.00
11:56 am 11:56 Mostly Sunny 82 28 70 21 66 66 NE 3 6 29.99 1016 10 16 0.00 0.00
12:56 pm 12:56 Partly Cloudy 86 30 70 21 59 59 E 3 6 29.97 1015 10 16 0.00 0.00
1:18 pm 13:18 Mostly Sunny 84 29 70 21 62 62 VRB 7 11 29.97 1015 10 16 0.00 0.00
1:56 pm 13:56 Mostly Sunny 86 30 72 22 62 62 SE 8 13 29.96 1014 10 16 0.00 0.00
2:56 pm 14:56 Partly Cloudy 86 30 72 22 62 62 SSE 8 13 29.94 1014 10 16 0.00 0.00
3:56 pm 15:56 Mostly Sunny 88 31 73 23 62 62 ESE 10 17 29.93 1013 10 16 0.00 0.00
4:56 pm 16:56 Partly Cloudy 88 31 73 23 62 62 E 9 15 29.91 1013 10 16 0.00 0.00
5:56 pm 17:56 Partly Cloudy 88 31 73 23 62 62 ESE 12 19 29.91 1013 10 16 0.00 0.00
6:56 pm 18:56 Sunny N/A N/A N/A ESE 9 15 N/A 10 16 0.00 0.00
7:56 pm 19:56 Mostly Cloudy 86 30 75 24 70 70 ESE 8 13 29.89 1012 10 16 0.00 0.00
8:56 pm 20:56 Partly Cloudy 84 29 75 24 74 74 ESE 7 11 29.90 1013 10 16 0.00 0.00
9:56 pm 21:56 Partly Cloudy 82 28 75 24 79 79 ESE 10 17 29.91 1013 10 16 0.00 0.00
10:56 pm 22:56 Mostly Clear 82 28 75 24 79 79 SE 10 17 29.91 1013 10 16 0.00 0.00
11:56 pm 23:56 Partly Cloudy 82 28 75 24 79 79 ESE 8 13 29.91 1013 10 16 0.00 0.00

Powered by AerisWeather